• In Deutschland
  • Länderverzeichnis
  • Für 7 Tage
  • Wassertemperatur
  • Satellitenkarten
  • Wetterkarte
  • Widgets
  • user-avatar
    Anmelden

    Stündliche Wetter Korfu

    Heute, 15 Dezember, Freitag

    Zeit Temperatur Niederschläge Wind Luftdruck Luftfeuchtigkeit
    00:00 +10°C° 0 mm 5 m/S 759 mmHg 92%
    01:00 +12°C° 0 mm 5 m/S 759 mmHg 92%
    02:00 +12°C° 0,1 mm 5 m/S 759 mmHg 93%
    03:00 +12°C° 0,1 mm 5 m/S 758 mmHg 93%
    04:00 +12°C° 0,1 mm 5 m/S 758 mmHg 94%
    05:00 +11°C° 0 mm 6 m/S 758 mmHg 94%
    06:00 +11°C° 0 mm 6 m/S 758 mmHg 94%
    07:00 +11°C° 0 mm 7 m/S 758 mmHg 94%
    08:00 +11°C° 0 mm 7 m/S 758 mmHg 92%
    09:00 +11°C° 0 mm 8 m/S 758 mmHg 91%
    10:00 +12°C° 0 mm 8 m/S 758 mmHg 89%
    11:00 +12°C° 0,1 mm 8 m/S 757 mmHg 89%
    12:00 +12°C° 0,1 mm 8 m/S 757 mmHg 89%
    13:00 +12°C° 0,1 mm 8 m/S 756 mmHg 89%
    14:00 +12°C° 0,3 mm 8 m/S 756 mmHg 90%
    15:00 +12°C° 0,3 mm 8 m/S 756 mmHg 92%
    16:00 +12°C° 0,3 mm 8 m/S 756 mmHg 93%
    17:00 +12°C° 0,2 mm 8 m/S 756 mmHg 93%
    18:00 +12°C° 0,2 mm 8 m/S 755 mmHg 93%
    19:00 +12°C° 0,2 mm 8 m/S 755 mmHg 93%
    20:00 +12°C° 0,2 mm 8 m/S 755 mmHg 94%
    21:00 +12°C° 0,2 mm 8 m/S 755 mmHg 94%
    22:00 +12°C° 0,2 mm 8 m/S 755 mmHg 94%
    23:00 +12°C° 0,2 mm 9 m/S 755 mmHg 95%

    Morgen, 16 Dezember, Samstag

    Zeit Temperatur Niederschläge Wind Luftdruck Luftfeuchtigkeit
    00:00 +12°C° 0,2 mm 9 m/S 755 mmHg 95%
    01:00 +13°C° 0,2 mm 9 m/S 755 mmHg 95%
    02:00 +13°C° 0,4 mm 9 m/S 754 mmHg 95%
    03:00 +13°C° 0,4 mm 9 m/S 754 mmHg 95%
    04:00 +13°C° 0,4 mm 9 m/S 753 mmHg 95%
    05:00 +13°C° 0,3 mm 9 m/S 753 mmHg 95%
    06:00 +13°C° 0,3 mm 8 m/S 753 mmHg 94%
    07:00 +13°C° 0,3 mm 8 m/S 753 mmHg 94%
    08:00 +13°C° 1 mm 8 m/S 753 mmHg 94%
    09:00 +13°C° 1 mm 8 m/S 753 mmHg 93%
    10:00 +13°C° 1 mm 8 m/S 753 mmHg 93%
    11:00 +12°C° 2 mm 7 m/S 753 mmHg 94%
    12:00 +12°C° 2 mm 7 m/S 753 mmHg 95%
    13:00 +11°C° 2 mm 6 m/S 752 mmHg 96%
    14:00 +12°C° 2,2 mm 5 m/S 752 mmHg 96%
    15:00 +12°C° 2,2 mm 5 m/S 752 mmHg 96%
    16:00 +11°C° 2,2 mm 4 m/S 752 mmHg 96%
    17:00 +11°C° 1,4 mm 4 m/S 752 mmHg 96%
    18:00 +11°C° 1,4 mm 4 m/S 753 mmHg 96%
    19:00 +11°C° 1,4 mm 3 m/S 753 mmHg 96%
    20:00 +11°C° 0,2 mm 3 m/S 754 mmHg 95%
    21:00 +11°C° 0,2 mm 3 m/S 754 mmHg 94%
    22:00 +11°C° 0,2 mm 3 m/S 754 mmHg 94%
    23:00 +11°C° 0,1 mm 3 m/S 754 mmHg 93%

    übermorgen, 17 Dezember, Sonntag

    Zeit Temperatur Niederschläge Wind Luftdruck Luftfeuchtigkeit
    00:00 +11°C° 0,1 mm 3 m/S 755 mmHg 92%
    01:00 +11°C° 0,1 mm 3 m/S 755 mmHg 92%
    02:00 +10°C° 0,3 mm 3 m/S 755 mmHg 91%
    03:00 +10°C° 0,3 mm 4 m/S 755 mmHg 90%
    04:00 +10°C° 0,3 mm 4 m/S 755 mmHg 89%
    05:00 +8°C° 0,2 mm 4 m/S 755 mmHg 87%
    06:00 +8°C° 0,2 mm 4 m/S 756 mmHg 85%
    07:00 +8°C° 0,2 mm 4 m/S 756 mmHg 83%
    08:00 +10°C° 0,1 mm 4 m/S 756 mmHg 78%
    09:00 +11°C° 0,1 mm 4 m/S 757 mmHg 73%
    10:00 +10°C° 0,1 mm 5 m/S 757 mmHg 68%
    11:00 +10°C° 0,1 mm 5 m/S 757 mmHg 68%
    12:00 +10°C° 0,1 mm 5 m/S 757 mmHg 67%
    13:00 +12°C° 0,1 mm 5 m/S 757 mmHg 67%
    14:00 +10°C° 0 mm 6 m/S 758 mmHg 70%
    15:00 +9°C° 0 mm 6 m/S 758 mmHg 73%
    16:00 +8°C° 0 mm 6 m/S 758 mmHg 76%
    17:00 +8°C° 0 mm 6 m/S 759 mmHg 78%
    18:00 +8°C° 0 mm 6 m/S 759 mmHg 79%
    19:00 +7°C° 0 mm 6 m/S 760 mmHg 80%
    20:00 +7°C° 0,1 mm 6 m/S 761 mmHg 81%
    21:00 +7°C° 0,1 mm 6 m/S 761 mmHg 82%
    22:00 +5°C° 0,1 mm 6 m/S 762 mmHg 83%
    23:00 +5°C° 0,1 mm 7 m/S 762 mmHg 83%

    18 Dezember, Montag

    Zeit Temperatur Niederschläge Wind Luftdruck Luftfeuchtigkeit
    00:00 +5°C° 0,1 mm 7 m/S 762 mmHg 83%
    01:00 +5°C° 0,1 mm 7 m/S 762 mmHg 83%
    02:00 +5°C° 0,1 mm 7 m/S 762 mmHg 83%
    03:00 +5°C° 0,1 mm 7 m/S 763 mmHg 83%
    04:00 +5°C° 0,1 mm 7 m/S 763 mmHg 83%
    05:00 +5°C° 0 mm 7 m/S 763 mmHg 83%
    06:00 +4°C° 0 mm 7 m/S 763 mmHg 83%
    07:00 +4°C° 0 mm 7 m/S 764 mmHg 83%
    08:00 +5°C° 0 mm 7 m/S 764 mmHg 78%
    09:00 +5°C° 0 mm 7 m/S 764 mmHg 73%
    10:00 +6°C° 0 mm 7 m/S 764 mmHg 68%
    11:00 +6°C° 0 mm 7 m/S 764 mmHg 66%
    12:00 +6°C° 0 mm 7 m/S 764 mmHg 63%
    13:00 +8°C° 0 mm 7 m/S 764 mmHg 61%
    14:00 +6°C° 0 mm 7 m/S 764 mmHg 64%
    15:00 +6°C° 0 mm 7 m/S 764 mmHg 67%
    16:00 +5°C° 0 mm 6 m/S 764 mmHg 71%
    17:00 +4°C° 0 mm 6 m/S 764 mmHg 72%
    18:00 +4°C° 0 mm 6 m/S 764 mmHg 74%
    19:00 +3°C° 0 mm 6 m/S 765 mmHg 75%
    20:00 +3°C° 0 mm 6 m/S 765 mmHg 75%
    21:00 +3°C° 0 mm 5 m/S 765 mmHg 75%
    22:00 +3°C° 0 mm 5 m/S 766 mmHg 75%
    23:00 +3°C° 0 mm 4 m/S 766 mmHg 74%

    19 Dezember, Dienstag

    Zeit Temperatur Niederschläge Wind Luftdruck Luftfeuchtigkeit
    00:00 +3°C° 0 mm 4 m/S 766 mmHg 72%
    01:00 +3°C° 0 mm 3 m/S 766 mmHg 71%
    02:00 +3°C° 0 mm 3 m/S 766 mmHg 69%
    03:00 +3°C° 0 mm 3 m/S 766 mmHg 67%
    04:00 +3°C° 0 mm 3 m/S 766 mmHg 65%
    05:00 +3°C° 0 mm 3 m/S 766 mmHg 63%
    06:00 +3°C° 0 mm 3 m/S 767 mmHg 61%
    07:00 +3°C° 0 mm 3 m/S 767 mmHg 59%
    08:00 +4°C° 0 mm 3 m/S 767 mmHg 53%
    09:00 +7°C° 0 mm 3 m/S 767 mmHg 48%
    10:00 +8°C° 0 mm 3 m/S 768 mmHg 43%
    11:00 +9°C° 0 mm 3 m/S 767 mmHg 41%
    12:00 +10°C° 0 mm 2 m/S 767 mmHg 39%
    13:00 +12°C° 0 mm 2 m/S 766 mmHg 37%
    14:00 +10°C° 0 mm 2 m/S 766 mmHg 41%
    15:00 +9°C° 0 mm 2 m/S 766 mmHg 45%
    16:00 +8°C° 0 mm 2 m/S 766 mmHg 49%
    17:00 +7°C° 0 mm 2 m/S 767 mmHg 50%
    18:00 +5°C° 0 mm 3 m/S 767 mmHg 52%
    19:00 +5°C° 0 mm 3 m/S 767 mmHg 53%
    20:00 +4°C° 0 mm 3 m/S 767 mmHg 53%
    21:00 +4°C° 0 mm 3 m/S 768 mmHg 53%
    22:00 +4°C° 0 mm 4 m/S 768 mmHg 53%
    23:00 +4°C° 0 mm 4 m/S 768 mmHg 52%

    20 Dezember, Mittwoch

    Zeit Temperatur Niederschläge Wind Luftdruck Luftfeuchtigkeit
    00:00 +3°C° 0 mm 4 m/S 768 mmHg 51%
    01:00 +3°C° 0 mm 4 m/S 768 mmHg 50%
    02:00 +3°C° 0 mm 4 m/S 767 mmHg 50%
    03:00 +3°C° 0 mm 4 m/S 767 mmHg 50%
    04:00 +3°C° 0 mm 3 m/S 767 mmHg 51%
    05:00 +3°C° 0 mm 3 m/S 767 mmHg 51%
    06:00 +3°C° 0 mm 3 m/S 767 mmHg 51%
    07:00 +3°C° 0 mm 3 m/S 767 mmHg 51%
    08:00 +5°C° 0 mm 3 m/S 767 mmHg 48%
    09:00 +7°C° 0 mm 3 m/S 767 mmHg 46%
    10:00 +9°C° 0 mm 2 m/S 767 mmHg 44%
    11:00 +10°C° 0 mm 3 m/S 767 mmHg 42%
    12:00 +11°C° 0 mm 3 m/S 766 mmHg 39%
    13:00 +12°C° 0 mm 3 m/S 766 mmHg 37%
    14:00 +11°C° 0 mm 3 m/S 766 mmHg 42%
    15:00 +10°C° 0 mm 3 m/S 766 mmHg 48%
    16:00 +8°C° 0 mm 4 m/S 766 mmHg 53%
    17:00 +7°C° 0 mm 4 m/S 766 mmHg 56%
    18:00 +6°C° 0 mm 4 m/S 766 mmHg 58%
    19:00 +5°C° 0 mm 4 m/S 767 mmHg 61%
    20:00 +5°C° 0 mm 5 m/S 767 mmHg 62%
    21:00 +3°C° 0 mm 5 m/S 767 mmHg 64%
    22:00 +3°C° 0 mm 5 m/S 767 mmHg 65%
    23:00 +3°C° 0 mm 5 m/S 767 mmHg 65%
    Mehr zeigen